Location: Plainartige
(45.6866°N, 1.7993°E)
Time: 05:01:10
(UTC+00:00)

NOAA 19 - Pass Details

Date: 04 July 2022
Orbit: 840 x 861 km, 99.1° (Epoch: 09 August)

Event Time Altitude Azimuth Distance (km) Brightness Sun altitude
Rises 20:21:40 0° 207° (SSW) 3,415 8.2 -5.8°
Reaches altitude 10° 20:24:45 10° 224° (SW) 2,481 7.7 -6.2°
Maximum altitude 20:28:34 19° 269° (W) 1,917 7.7 -6.7°
Drops below altitude 10° 20:32:26 10° 313° (NW) 2,484 9.5 -7.2°
Sets 20:35:32 0° 331° (NNW) 3,421 10.1 -7.6°
